Portada
METAR-TAF:

METAR-TAF

Aeroports :

Agartala, Índia

latitud: 23-53-24N, longitud: 91-14-32E, altitud: 14 m

Observació

L'informe es va fer fa 4 hores i 36 minuts, a les 14:00 UTC
Vent calma
Temperatura 17°C
Humitat 88%
Pressió 1013 hPa
Visibilitat: 5000 m
boirina

METAR: VEAT 101400Z 00000KT 5000 BR NSC 17/15 Q1013 NOSIG

Hora: 00:06 (18:36 UTC)


TAF: manca

Observacions i pronòstics meteorològics de més de 4000 aeroports (METAR i TAF).

Les estacions disponibles són els punts grocs i vermells al mapa.

Posi el ratolí al punt desitjat per veure el nom de l'estació.

Feu clic per veure les observacions i els pronòstics meteorològics.

Per canviar el mapa: feu clic els botons verds amb una creu de color negre per apropar; al botó verd amb un guió per allunyar la imatge; o en les fletxes verdes per a mapes adjacents.


METAR-TAF: